Temp
72 68 62 68 68 71 70 71 72 73 77 73 69 70 72 76 77 76 75 75 73 77 80 79 80 81 80 77 75 73 73 72 72 70 69 69 69 69 69 71 73 73 73 74
68 62 72 75 75 74 70 68 70 75 77 72 68 69 74 75 76 77 76 72 75 75 75 78 79 80 79 77 76 75 74 72 73 73 71 71 70 70 70 71 72 73 74 74
64 72 79 76 73 71 63 64 69 69 73 73 70 64 68 75 77 77 77 76 74 75 76 77 78 78 79 77 77 75 74 73 74 73 71 70 70 69 69 69 69 70 72 74
67 75 78 74 73 71 58 76 78 73 66 58 67 52 62 69 71 74 75 72 74 73 76 77 79 77 78 78 79 77 75 73 74 73 71 70 69 67 68 69 70 70 72 72
69 70 72 71 74 75 72 76 73 76 64 61 60 56 59 66 66 68 72 71 71 73 75 76 78 79 80 80 79 78 73 74 75 74 73 71 69 70 69 70 70 70 71 71
71 76 75 75 80 78 80 72 67 61 57 53 56 58 56 63 70 72 73 74 72 73 74 75 76 80 80 80 80 77 73 72 74 75 73 72 71 70 68 68 68 69 70 69
68 71 74 77 69 73 70 60 52 52 50 52 53 58 59 64 67 73 73 68 70 73 72 73 73 72 76 79 79 79 76 71 75 75 76 75 72 71 70 70 66 67 69 68
56 59 68 74 72 70 64 62 54 47 46 53 59 52 61 66 67 73 70 69 72 73 72 72 71 72 75 79 80 79 77 76 75 76 76 76 73 71 71 71 70 70 70 70
54 60 74 76 76 75 66 59 62 53 46 50 51 57 65 66 65 66 68 70 71 72 72 72 73 75 72 74 78 79 79 78 77 78 75 75 73 73 72 72 73 71 71 73
61 57 65 77 75 75 67 69 58 53 46 44 50 52 53 58 61 62 64 68 68 67 70 70 75 71 71 72 76 77 81 79 79 77 76 75 73 75 73 74 73 71 71 71
62 59 65 70 64 62 65 59 56 55 51 47 45 52 60 59 60 62 63 65 65 67 68 68 68 70 72 74 71 70 68 67 66 66 74 73 72 74 73 72 72 72 72 72
64 58 55 63 68 70 65 59 55 53 50 48 49 52 62 61 61 63 64 65 65 66 68 67 66 69 69 71 68 69 67 66 62 65 68 72 72 73 72 71 71 72 71 71
66 55 52 56 62 68 63 60 58 53 50 48 49 53 59 58 59 61 62 63 63 65 65 65 63 66 67 69 67 65 66 66 63 64 67 70 69 70 69 69 70 71 71 70
70 54 57 54 56 59 59 63 60 55 52 50 53 54 55 56 58 59 60 62 62 62 65 67 61 64 67 67 66 66 66 70 67 64 67 67 68 69 71 70 71 71 69 69
67 58 55 54 62 62 63 65 65 58 56 55 58 57 61 61 58 60 61 62 62 63 64 66 63 62 66 66 67 68 66 66 67 67 67 67 68 70 70 70 69 68 67 69
62 57 55 54 61 62 61 65 65 65 62 60 59 59 61 60 60 60 62 63 63 64 65 65 65 66 67 67 67 68 67 68 68 66 66 68 68 68 68 68 70 70 69 67
58 56 53 50 57 58 57 62 64 64 65 63 59 64 62 59 62 61 61 63 65 66 68 66 67 68 67 69 71 68 67 68 66 66 65 65 66 67 68 70 69 67 65 65
59 53 50 50 53 47 62 68 71 68 66 65 65 65 66 63 62 62 63 64 65 67 67 66 66 66 65 65 64 64 64 63 62 62 62 62 62 62 63 63 62 63 63 63
62 55 50 51 48 57 64 65 66 63 59 66 65 65 64 64 64 61 64 65 64 64 61 61 62 62 62 61 61 60 59 59 59 58 59 60 60 60 60 60 60 61 61 60
61 57 56 48 49 48 59 69 69 67 54 67 66 64 63 64 55 57 64 66 62 62 61 60 61 61 60 58 59 57 56 56 55 55 56 57 57 57 57 57 57 58 58 58
59 57 53 48 49 55 64 69 69 54 57 66 67 64 65 59 57 59 63 62 62 61 59 59 58 56 56 57 57 54 53 52 53 54 54 54 53 54 55 54 55 55 55 55
58 55 52 49 46 49 67 67 61 62 59 64 64 62 60 60 61 60 60 59 59 58 58 57 55 53 54 55 54 51 50 51 51 51 51 51 51 54 55 52 52 52 50 51
57 62 59 58 57 62 61 63 61 64 61 61 63 63 63 61 59 58 56 55 56 55 55 55 53 52 51 51 51 48 49 50 50 50 49 49 50 51 51 49 49 49 49 49
62 63 60 60 60 60 62 64 65 65 65 66 66 64 63 59 58 55 54 53 55 54 52 52 50 48 48 49 50 50 50 50 49 48 47 48 47 50 49 51 50 47 47 50
61 61 56 54 57 62 64 64 65 65 66 65 65 64 61 58 55 54 51 50 50 50 50 49 48 48 48 48 49 51 50 49 47 47 47 46 48 47 49 50 50 52 53 53
60 60 57 55 62 60 61 63 67 65 63 63 61 59 59 58 54 53 50 49 49 48 48 48 48 48 48 49 49 50 50 49 46 46 46 45 46 47 49 49 50 52 51 50
MSLP
1004.36 1004.83 1004.95 1004.88 1005.03 1004.81 1004.82 1005.00 1004.86 1005.05 1005.30 1006.16 1006.79 1006.81 1007.33 1008.01 1008.49 1008.73 1008.97 1009.39 1009.62 1009.71 1009.83 1010.36 1010.77 1011.22 1011.76 1012.24 1012.61 1012.98 1013.36 1013.70 1014.42 1015.24 1015.69 1015.79 1015.75 1015.75 1015.72 1015.66 1015.60 1015.72 1015.63 1015.56
1004.98 1004.89 1004.19 1004.38 1004.43 1004.43 1004.31 1004.60 1004.58 1004.39 1004.76 1006.12 1006.97 1007.04 1007.31 1007.76 1007.78 1008.17 1008.52 1008.87 1009.05 1009.65 1009.96 1010.27 1010.57 1011.05 1011.33 1011.66 1012.21 1012.77 1013.13 1013.61 1013.98 1014.52 1015.02 1015.34 1015.61 1015.51 1015.28 1015.04 1015.09 1015.19 1015.24 1015.30
1005.01 1004.09 1003.80 1003.98 1003.85 1004.04 1004.11 1004.15 1004.02 1004.38 1005.24 1006.32 1007.17 1007.96 1007.79 1007.88 1007.94 1008.13 1008.14 1008.53 1009.00 1009.08 1009.46 1009.86 1010.28 1010.52 1011.12 1011.47 1011.61 1012.05 1012.38 1012.79 1013.53 1014.03 1014.70 1015.35 1015.68 1015.71 1015.65 1015.27 1015.02 1014.99 1014.88 1014.50
1004.49 1003.62 1003.55 1003.45 1003.54 1003.64 1003.82 1003.42 1003.87 1004.66 1005.57 1006.68 1007.07 1008.62 1007.76 1007.71 1007.60 1007.57 1007.86 1008.20 1008.49 1008.90 1009.14 1009.42 1009.79 1010.28 1010.20 1010.40 1010.99 1011.29 1011.95 1012.16 1012.75 1013.48 1013.95 1014.16 1014.81 1015.58 1015.24 1015.26 1014.88 1014.44 1014.19 1014.49
1004.09 1003.50 1003.28 1003.23 1002.86 1003.13 1003.20 1003.22 1003.92 1004.45 1005.92 1006.68 1007.69 1008.46 1007.69 1007.58 1007.77 1007.50 1007.56 1008.15 1008.27 1008.37 1008.66 1008.88 1008.90 1009.05 1009.26 1009.95 1010.37 1010.59 1011.43 1012.25 1012.51 1012.99 1013.39 1013.50 1013.66 1014.03 1014.23 1014.50 1014.72 1014.61 1014.44 1014.27
1003.88 1003.32 1003.01 1002.26 1001.94 1002.47 1002.72 1003.53 1004.80 1005.96 1006.77 1007.55 1007.67 1008.44 1008.22 1007.14 1005.91 1006.93 1007.19 1007.66 1008.14 1008.90 1008.63 1008.29 1008.54 1009.07 1009.40 1009.74 1010.42 1011.08 1011.57 1012.29 1012.19 1012.54 1012.73 1013.11 1013.31 1013.62 1014.40 1014.80 1014.58 1014.45 1014.29 1014.39
1004.16 1003.35 1002.42 1002.11 1002.37 1002.52 1003.19 1004.76 1006.15 1007.36 1008.23 1008.27 1007.98 1008.15 1006.97 1007.22 1007.12 1006.88 1007.05 1008.72 1009.08 1008.94 1008.81 1008.87 1008.46 1008.72 1009.01 1009.64 1009.98 1010.64 1011.35 1011.66 1012.10 1012.23 1012.27 1012.74 1013.42 1013.80 1014.10 1014.35 1014.29 1014.41 1014.30 1014.26
1004.86 1003.73 1002.49 1001.98 1002.21 1002.60 1003.54 1004.80 1006.44 1007.94 1008.95 1008.77 1008.14 1008.20 1007.49 1007.80 1007.45 1006.86 1007.49 1008.09 1008.19 1008.48 1008.46 1008.74 1009.42 1009.62 1009.03 1009.03 1009.56 1010.05 1010.28 1010.51 1011.40 1011.74 1012.13 1013.02 1013.12 1013.02 1013.27 1013.47 1013.69 1013.87 1013.84 1013.61
1004.84 1003.84 1002.43 1002.15 1001.84 1002.41 1003.74 1004.98 1005.83 1007.58 1009.08 1009.39 1009.12 1008.60 1008.24 1008.19 1007.95 1007.74 1007.93 1008.10 1008.10 1008.04 1007.93 1008.11 1008.16 1008.98 1010.18 1010.70 1010.26 1009.63 1009.68 1010.11 1010.88 1011.03 1011.45 1011.90 1012.46 1013.16 1013.07 1013.14 1013.17 1013.25 1013.46 1013.48
1004.43 1004.55 1003.07 1002.29 1002.14 1002.47 1003.02 1004.53 1006.17 1007.82 1009.33 1010.00 1009.75 1009.43 1009.52 1009.19 1009.00 1008.80 1008.62 1008.37 1008.59 1008.87 1008.59 1008.95 1009.10 1010.06 1010.89 1011.10 1011.24 1011.05 1010.58 1010.83 1011.41 1011.89 1011.53 1011.19 1012.08 1012.12 1012.59 1012.73 1012.81 1013.05 1013.22 1013.38
1004.48 1004.90 1004.01 1003.45 1003.40 1003.31 1003.93 1005.09 1006.73 1008.03 1008.89 1009.99 1010.36 1010.21 1009.22 1009.16 1009.39 1009.23 1008.91 1009.30 1009.36 1009.34 1009.10 1009.27 1010.05 1009.90 1011.18 1010.99 1011.58 1011.61 1012.32 1012.20 1012.89 1015.76 1012.46 1011.42 1011.81 1012.29 1012.72 1012.80 1012.71 1012.86 1012.95 1013.28
1003.98 1005.21 1005.51 1004.92 1004.61 1003.97 1004.35 1005.51 1006.79 1008.13 1009.37 1009.93 1010.17 1010.64 1009.88 1009.72 1009.85 1009.78 1009.49 1009.39 1009.34 1009.42 1009.45 1009.87 1010.27 1010.70 1011.70 1011.94 1011.30 1012.13 1012.28 1012.40 1014.66 1010.78 1011.53 1012.37 1012.72 1011.68 1011.86 1012.89 1012.91 1012.83 1012.88 1013.10
1003.74 1005.06 1005.90 1005.95 1005.40 1004.52 1005.02 1005.53 1006.17 1007.48 1008.44 1009.77 1010.37 1010.22 1010.49 1010.09 1010.57 1010.38 1010.22 1010.34 1010.29 1010.32 1010.03 1010.08 1010.23 1010.49 1011.49 1011.85 1010.95 1012.63 1011.48 1011.30 1013.32 1015.32 1012.89 1011.42 1012.51 1011.86 1012.12 1012.94 1012.69 1012.73 1012.85 1012.87
1002.61 1004.80 1005.14 1005.49 1005.35 1005.22 1005.52 1005.83 1006.17 1006.92 1008.31 1009.08 1009.09 1009.21 1010.22 1010.48 1010.97 1011.14 1011.24 1011.21 1011.21 1010.92 1010.65 1010.51 1010.69 1010.53 1010.05 1010.10 1009.56 1012.06 1011.45 1010.45 1013.16 1014.89 1014.71 1013.79 1012.59 1011.92 1012.02 1012.10 1012.07 1012.37 1012.83 1012.73
1003.04 1004.89 1005.21 1005.62 1005.24 1005.02 1005.13 1005.37 1005.58 1006.20 1006.81 1007.77 1007.66 1008.54 1008.39 1009.48 1010.66 1010.78 1011.06 1011.30 1011.41 1011.28 1010.99 1010.60 1010.40 1011.38 1010.19 1008.70 1009.90 1011.60 1012.35 1013.46 1014.45 1015.45 1015.24 1013.43 1012.49 1012.13 1011.64 1011.62 1012.05 1012.16 1012.57 1012.63
1003.54 1005.32 1005.73 1006.41 1005.92 1005.27 1004.83 1004.77 1005.04 1005.44 1005.99 1006.75 1007.13 1007.57 1007.96 1008.94 1010.29 1010.86 1011.47 1011.75 1011.87 1011.43 1011.30 1011.21 1011.05 1011.18 1011.00 1011.41 1011.90 1012.05 1012.60 1013.31 1014.27 1014.55 1013.82 1012.59 1012.04 1012.49 1011.62 1011.76 1012.03 1012.15 1012.53 1012.72
1004.73 1005.83 1006.77 1007.14 1006.46 1005.68 1004.93 1004.20 1004.13 1004.54 1005.07 1005.91 1006.58 1006.74 1007.86 1008.98 1009.70 1010.57 1011.11 1011.07 1011.30 1011.39 1011.71 1011.60 1011.86 1011.81 1012.03 1012.42 1012.85 1013.31 1013.39 1013.35 1013.61 1013.67 1013.54 1013.27 1013.18 1012.83 1012.59 1012.58 1012.72 1013.18 1013.18 1013.06
1005.33 1006.50 1007.37 1007.84 1006.92 1006.29 1004.67 1003.83 1003.55 1004.19 1004.89 1005.43 1006.08 1006.42 1007.27 1008.41 1009.22 1010.28 1010.28 1010.50 1011.04 1011.63 1012.06 1012.28 1012.31 1012.40 1012.74 1013.41 1014.09 1014.72 1014.90 1014.78 1014.70 1014.74 1014.70 1014.39 1014.33 1014.24 1014.14 1013.95 1013.82 1013.78 1013.48 1013.34
1005.18 1006.49 1007.93 1008.36 1007.86 1006.68 1004.60 1004.14 1004.12 1004.36 1005.46 1005.68 1006.22 1007.12 1008.03 1008.87 1009.79 1010.26 1010.32 1010.81 1011.31 1011.99 1012.83 1013.43 1013.52 1013.54 1013.97 1014.27 1014.93 1015.31 1015.74 1015.97 1016.24 1016.54 1016.32 1016.02 1015.78 1015.67 1015.14 1014.67 1014.23 1014.16 1013.59 1013.03
1005.56 1006.36 1007.52 1008.53 1008.15 1007.03 1005.10 1004.11 1004.11 1004.50 1005.80 1006.04 1006.74 1007.54 1008.36 1009.51 1010.42 1010.64 1010.91 1011.42 1011.89 1012.58 1013.14 1013.51 1013.93 1014.41 1014.92 1015.59 1015.81 1016.05 1016.49 1016.78 1017.03 1017.05 1016.74 1016.51 1016.15 1015.52 1015.21 1014.81 1014.17 1013.58 1013.41 1013.21
1005.90 1007.24 1007.94 1008.12 1007.72 1006.54 1005.05 1004.63 1004.54 1005.33 1006.51 1006.41 1007.15 1008.09 1008.98 1009.97 1010.86 1011.35 1011.48 1012.37 1012.86 1013.32 1013.66 1014.12 1014.52 1014.69 1015.01 1015.19 1015.64 1016.32 1016.74 1017.07 1017.07 1017.05 1016.72 1015.90 1015.62 1014.96 1014.79 1014.53 1014.14 1014.13 1013.99 1013.50
1006.35 1006.96 1007.60 1007.84 1007.38 1006.33 1004.88 1005.07 1005.47 1005.72 1006.43 1006.87 1007.71 1008.77 1009.74 1010.54 1011.43 1011.96 1012.67 1013.27 1013.82 1014.40 1014.95 1015.27 1015.28 1015.59 1015.66 1015.51 1015.59 1015.97 1016.07 1016.35 1016.13 1015.74 1015.39 1015.49 1015.20 1014.91 1014.90 1014.88 1014.53 1014.36 1013.78 1013.98
1005.82 1005.78 1006.19 1007.06 1006.67 1005.92 1005.64 1005.49 1005.37 1005.67 1006.38 1007.70 1008.18 1009.53 1010.03 1011.26 1012.07 1012.75 1013.59 1014.19 1014.74 1015.13 1015.43 1015.82 1016.35 1016.81 1016.76 1016.65 1016.62 1016.92 1016.64 1016.02 1015.86 1015.63 1015.80 1015.53 1015.40 1015.58 1015.34 1014.96 1014.67 1014.23 1014.13 1014.05
1005.47 1005.46 1005.77 1006.63 1006.53 1006.49 1006.41 1006.22 1006.35 1006.73 1006.86 1008.02 1008.84 1009.85 1010.73 1011.71 1012.85 1013.78 1014.41 1015.09 1015.62 1016.16 1016.46 1016.64 1016.73 1016.79 1016.90 1016.85 1016.81 1016.72 1016.80 1016.70 1016.62 1016.51 1016.30 1016.18 1016.09 1015.61 1015.25 1014.95 1014.52 1013.90 1013.32 1012.87
1005.24 1005.58 1006.43 1007.35 1007.47 1007.17 1007.13 1007.00 1006.99 1007.74 1008.16 1008.91 1010.00 1010.80 1011.72 1012.59 1013.80 1014.54 1015.32 1015.87 1016.18 1016.38 1016.54 1016.70 1016.90 1017.02 1017.13 1017.02 1016.87 1016.68 1016.73 1016.58 1016.72 1016.54 1016.24 1015.98 1015.76 1015.47 1014.84 1014.20 1013.78 1013.41 1013.02 1012.56
1005.29 1005.39 1005.98 1006.15 1005.99 1006.26 1006.99 1007.43 1007.65 1007.94 1008.93 1009.74 1010.37 1011.72 1012.63 1012.97 1013.96 1015.01 1015.89 1016.23 1016.51 1016.69 1016.82 1016.86 1016.85 1016.82 1016.82 1016.77 1016.67 1016.51 1016.33 1016.40 1016.53 1016.44 1016.29 1016.19 1016.04 1015.59 1015.12 1014.42 1013.56 1013.16 1012.54 1012.04
Wind_Speed
3 6 4 8 5 4 4 1 3 8 7 7 11 9 16 17 13 13 13 11 9 17 12 10 11 12 10 8 10 11 11 10 8 3 3 3 3 3 3 4 6 6 7 7
7 3 7 4 5 7 0 2 5 5 8 6 7 11 12 18 19 16 15 10 12 8 9 11 12 13 13 13 12 11 12 10 8 6 3 2 2 3 3 3 6 7 6 6
5 9 2 3 4 1 1 2 6 5 6 4 8 6 4 7 6 8 11 8 6 14 14 14 14 15 12 13 15 13 13 13 10 9 5 2 2 1 2 3 3 5 7 8
5 5 6 6 6 5 4 6 7 11 9 7 5 5 7 8 11 12 12 9 11 9 10 12 14 13 16 16 14 13 12 13 11 11 8 8 6 4 4 3 3 5 6 4
8 2 5 5 8 6 11 1 3 3 5 7 3 4 9 8 11 11 13 9 9 8 9 13 15 17 16 13 14 13 11 10 10 11 9 8 6 6 3 3 4 6 3 5
7 3 4 8 10 5 1 4 7 5 4 2 5 7 5 10 25 14 12 12 9 7 7 9 7 9 10 9 11 9 10 10 11 12 12 12 11 7 3 3 4 4 3 3
7 6 5 4 4 4 7 7 4 5 5 7 2 4 9 4 7 9 12 9 2 5 6 4 9 8 8 13 14 11 11 11 12 13 13 12 9 6 7 7 4 4 3 3
2 7 1 2 6 9 5 8 7 6 3 4 4 3 4 4 4 7 12 10 8 8 7 7 4 6 4 10 13 12 13 13 12 13 13 8 8 6 5 6 5 5 5 5
5 6 6 5 6 9 5 2 5 7 3 3 3 4 5 3 6 6 9 7 9 9 9 10 5 6 1 8 6 11 13 13 12 15 10 10 7 4 6 6 5 4 5 4
3 3 2 5 3 6 4 5 4 4 3 2 5 5 4 4 5 3 6 12 2 7 5 5 8 10 7 6 6 13 10 6 7 11 10 9 10 4 7 7 7 5 4 3
6 5 9 5 3 3 4 4 6 5 5 6 2 5 6 8 5 8 4 4 4 6 8 3 7 11 13 5 6 10 16 22 23 17 14 4 4 12 9 7 4 5 4 4
7 6 5 7 8 3 3 4 5 6 3 2 4 2 5 6 5 4 4 2 4 6 3 5 6 12 12 13 20 10 13 14 13 28 21 9 13 5 6 3 5 5 4 2
9 3 2 7 7 4 5 1 5 5 3 1 5 5 6 5 5 7 5 3 6 8 2 5 7 7 8 4 15 8 10 11 8 7 20 5 9 6 8 6 5 6 5 5
10 5 9 9 7 5 4 1 1 6 4 3 5 3 8 9 8 6 6 4 5 6 2 2 3 4 7 2 9 7 2 5 8 14 15 8 5 7 7 6 6 5 3 4
6 5 5 1 4 4 6 7 6 5 6 6 5 5 4 12 12 8 6 5 2 2 4 4 7 4 4 11 8 4 3 8 12 16 11 7 3 4 6 6 5 4 4 3
4 3 4 2 2 4 3 5 4 4 2 4 5 4 3 2 9 6 8 11 8 6 4 1 3 9 8 5 4 7 7 9 11 10 9 5 3 4 4 4 4 3 3 3
5 6 3 4 3 1 4 3 4 2 4 8 6 8 7 2 6 10 9 9 8 6 7 8 8 5 4 5 7 5 1 4 5 7 8 7 6 6 6 5 2 4 5 4
4 5 3 2 3 2 8 7 4 8 3 2 3 5 7 6 2 6 5 7 7 6 4 5 5 6 7 7 10 9 8 9 10 10 10 9 8 8 7 6 5 4 3 4
6 5 4 5 2 5 5 1 2 4 1 1 4 6 5 8 3 3 3 3 2 7 8 7 8 10 10 11 8 10 9 8 8 6 5 6 5 5 4 5 6 4 3 4
8 8 5 3 4 6 7 7 2 3 2 3 3 8 11 7 4 4 7 6 11 11 9 9 8 9 10 7 6 9 7 8 7 5 4 3 4 5 5 5 6 4 5 6
4 5 4 3 2 6 7 5 2 2 9 4 6 4 10 4 1 8 14 13 12 10 10 8 9 9 7 6 7 9 6 6 2 2 2 4 5 6 6 6 5 6 7 8
6 6 4 3 3 4 2 1 5 6 3 7 7 6 13 12 11 14 13 11 10 10 9 7 8 8 7 7 7 7 8 4 4 6 8 7 6 5 6 6 4 6 5 6
3 6 5 7 6 4 4 4 2 5 8 5 15 10 16 14 11 10 8 8 7 7 6 5 6 6 5 5 5 5 2 5 7 8 7 7 6 5 5 5 6 5 5 6
2 4 5 3 2 3 2 6 6 5 14 13 15 14 13 15 10 9 7 6 6 5 5 4 6 6 5 4 4 3 0 2 4 5 6 6 6 9 7 6 5 5 5 6
4 5 5 2 4 6 7 3 11 11 13 16 11 12 13 14 8 8 7 6 5 4 4 4 5 4 3 2 1 1 3 3 4 5 5 6 7 8 9 8 7 8 8 8
4 8 6 8 13 7 7 7 11 16 14 12 16 8 6 9 11 9 6 5 4 5 2 3 4 4 3 4 5 5 4 4 4 6 5 5 6 6 8 9 10 10 14 16
Wind_Direction
349 50 263 257 219 204 174 284 221 208 199 152 194 201 179 189 204 208 203 205 197 207 202 188 191 186 178 169 173 175 175 177 163 146 177 204 218 213 221 221 238 232 229 218
15 259 248 273 231 254 46 85 260 247 170 135 162 220 185 186 207 205 206 206 205 176 172 183 181 185 188 180 186 184 191 176 179 174 161 161 151 224 207 196 234 237 236 227
159 246 0 246 267 278 325 229 262 193 135 46 110 327 217 193 194 203 210 210 200 184 183 182 186 190 187 193 191 190 188 177 185 177 128 99 33 15 278 236 225 236 236 229
219 271 235 292 272 125 326 229 271 141 124 198 134 235 272 188 203 204 203 183 189 184 187 187 187 187 194 202 199 189 192 181 182 169 170 167 169 212 232 236 223 228 219 210
250 295 341 295 245 141 232 189 316 152 127 108 221 96 258 139 219 211 206 190 202 175 184 193 193 196 201 195 196 188 185 192 183 184 188 185 189 202 205 205 224 252 215 225
246 281 224 237 280 184 1 61 39 56 93 60 199 160 248 202 217 202 197 196 179 159 156 172 172 186 198 190 201 191 174 208 190 194 193 194 201 200 181 227 218 229 233 243
329 268 259 190 257 15 76 62 351 0 10 226 288 119 238 23 354 239 193 84 115 168 206 209 171 174 178 189 193 189 186 201 207 204 207 201 206 184 197 213 209 209 241 223
134 325 236 153 185 208 173 144 156 207 206 266 5 255 321 75 342 141 120 149 159 189 214 206 251 327 220 196 190 191 196 201 203 206 211 197 189 194 193 214 201 206 213 225
153 273 295 172 218 141 191 181 183 108 29 64 279 298 22 61 40 77 142 154 187 210 214 230 198 160 102 339 273 201 205 214 196 213 192 192 174 167 211 228 215 205 209 238
212 294 242 313 345 42 122 152 55 15 164 234 297 282 218 222 172 152 163 203 255 358 324 297 289 65 48 36 4 352 270 237 237 242 205 188 149 199 252 255 214 202 248 223
141 112 283 41 345 162 28 23 57 118 120 154 187 273 249 213 185 199 194 46 1 278 254 281 29 38 28 359 33 78 46 26 12 332 282 174 179 176 206 206 195 195 207 201
195 138 238 214 317 25 100 128 125 124 221 67 138 267 266 187 220 189 221 292 305 297 262 48 63 53 49 57 71 53 32 27 52 341 345 65 274 202 134 167 169 161 148 132
181 219 79 352 343 20 53 26 97 96 90 177 130 248 202 169 210 250 205 252 297 304 130 53 27 68 72 49 89 75 85 49 39 244 284 258 226 141 127 144 126 116 107 91
106 131 160 179 192 153 127 222 93 125 93 189 218 238 185 187 169 185 194 227 296 316 317 284 112 341 126 163 122 156 165 59 237 258 266 245 194 131 133 137 123 120 134 120
138 120 102 56 128 144 168 180 186 182 165 160 223 210 235 173 169 185 157 136 254 262 253 258 46 314 315 63 67 195 182 184 207 230 229 220 196 140 138 136 156 164 182 196
12 133 110 112 210 193 182 242 225 241 151 108 128 238 105 128 122 159 160 162 169 235 218 19 1 324 2 38 138 180 201 187 187 202 208 200 187 195 176 178 191 200 225 245
58 115 78 181 5 334 24 253 180 184 159 147 144 216 146 167 170 173 178 163 171 157 160 185 197 221 247 186 197 193 161 27 42 41 27 19 7 0 357 344 306 256 246 236
98 77 59 140 32 99 239 306 213 113 38 121 108 178 157 149 174 139 165 145 160 140 140 58 14 85 52 74 79 89 70 54 46 38 27 21 16 17 9 16 6 334 309 277
96 111 91 129 169 291 324 264 277 149 282 23 189 106 101 109 105 47 119 78 97 93 88 86 78 84 81 72 71 77 67 65 57 44 30 16 6 359 1 5 353 319 321 324
117 75 107 105 129 199 245 301 3 107 325 221 119 157 143 152 135 240 133 109 82 87 87 79 66 84 89 89 102 92 82 73 52 24 18 14 8 2 357 356 342 333 340 319
18 25 170 156 169 278 248 275 345 85 236 150 113 133 159 129 154 115 97 87 92 88 80 71 62 63 55 56 79 83 82 65 91 119 51 31 11 356 2 345 345 344 332 322
168 153 192 79 101 269 187 113 173 198 45 129 98 115 103 107 99 92 89 89 86 92 88 76 72 56 31 36 61 55 49 17 22 18 16 2 357 359 344 327 308 310 315 297
175 187 178 159 217 251 300 254 45 139 130 121 115 120 118 113 103 101 100 94 87 83 72 67 88 90 58 61 78 79 354 10 11 15 4 357 346 325 317 319 305 310 286 271
253 164 95 92 340 32 29 61 75 114 119 119 120 124 122 120 115 104 97 92 99 101 108 113 95 78 65 47 68 102 36 7 33 12 357 342 335 329 320 306 278 267 277 284
202 109 123 62 354 54 356 89 128 111 113 112 107 121 126 123 115 119 116 112 110 97 74 79 93 96 99 93 51 4 43 43 17 0 350 344 338 323 317 310 301 299 290 291
191 169 157 208 197 155 185 174 146 131 131 124 120 109 110 129 127 128 122 127 123 117 87 60 46 54 11 358 339 333 347 6 0 344 343 329 316 301 305 307 304 288 285 285